{"data":{"norad_id":40424,"epoch":"2026-05-25T03:43:47.341056Z","epoch_age_seconds":68436,"freshness":"FRESH","line1":"1 40424U 15010A   26145.15540904 -.00000029  00000+0  00000+0 0  9997","line2":"2 40424   0.0114 313.6149 0001638  66.5091 275.5856  1.00269634 41143","mean_motion":1.00269634,"eccentricity":0.0001638,"inclination_deg":0.0114,"raan_deg":313.6149,"arg_perigee_deg":66.5091,"mean_anomaly_deg":275.5856,"bstar":0,"rev_number":4114,"period_min":1436.1277114066,"perigee_km":35780.291293485,"apogee_km":35794.104657223,"semimajor_km":42165.334975354,"source":"CELESTRAK","updated_at":"2026-05-25T13:38:13.955181Z"}}